Le nostre stazioni meteo in Italia

Pubblicità
Il mio iltempo24.it
Catania/Fontanarossa, Italia (16460): Temperatura & dewpoint: 11.02.2019 13:00:00 - 17.02.2019 13:00:00 (CET)Catania/Fontanarossa, Italia (16460): velocità del vento: 11.02.2019 13:00:00 - 17.02.2019 13:00:00 (CET)Catania/Fontanarossa, Italia (16460): direzione del vento: 11.02.2019 13:00:00 - 17.02.2019 13:00:00 (CET)Catania/Fontanarossa, Italia (16460): reduced air pressure: 11.02.2019 13:00:00 - 17.02.2019 13:00:00 (CET)Catania/Fontanarossa, Italia (16460): visibility: 11.02.2019 13:00:00 - 17.02.2019 13:00:00 (CET)Catania/Fontanarossa, Italia (16460): precipitazioni: 11.02.2019 13:00:00 - 17.02.2019 13:00:00 (CET)
Data & Tempo tt [°C] td [°C] ff [km/h] ff [kn] dd ppp [hPa] vv [km] rr [mm]
17.02.2019 13:00:00 15,8 1,8 15 8 SO 1028,6 10 -
17.02.2019 12:00:00 15,0 1,0 16 9 OSO - 10 -
17.02.2019 11:00:00 - - - - - - - -
17.02.2019 10:00:00 11,2 4,7 16 9 OSO 1030,1 10 0,0
17.02.2019 09:00:00 7,0 4,0 15 8 SO - 10 -
17.02.2019 08:00:00 3,0 2,0 11 6 OSO - 10 -
17.02.2019 07:00:00 1,7 1,1 11 6 OSO 1029,6 10 -
17.02.2019 06:00:00 2,0 1,0 11 6 OSO - 10 -
17.02.2019 05:00:00 1,0 1,0 9 5 OSO - 10 -
17.02.2019 04:00:00 1,2 0,8 8 4 OSO 1028,8 10 0,0
17.02.2019 03:00:00 2,0 1,0 8 4 OSO - 10 -
17.02.2019 02:00:00 2,0 2,0 9 5 OSO - 10 -
17.02.2019 01:00:00 3,2 2,1 13 7 SO 1029,7 10 -
17.02.2019 00:00:00 4,0 2,0 8 4 SO - 10 -
16.02.2019 23:00:00 5,0 2,0 11 6 O - 10 -
16.02.2019 22:00:00 6,4 1,6 5 3 SO 1030,0 10 0,0
16.02.2019 21:00:00 9,0 2,0 9 5 O - 10 -
16.02.2019 20:00:00 11,0 3,0 8 4 ONO - 10 -
16.02.2019 19:00:00 12,0 0,8 9 5 NNE 1028,6 10 -
16.02.2019 18:00:00 13,0 4,0 22 12 ENE - 10 -
16.02.2019 17:00:00 13,0 4,0 22 12 ENE - 10 -
16.02.2019 16:00:00 12,4 4,7 21 11 E 1027,4 10 0,0
16.02.2019 15:00:00 14,0 4,0 24 13 E - 10 -
16.02.2019 14:00:00 14,0 4,0 26 14 E - 10 -
16.02.2019 13:00:00 13,6 2,6 28 15 E 1027,5 10 -
16.02.2019 12:00:00 14,0 2,0 28 15 ENE - 10 -
16.02.2019 11:00:00 13,0 1,0 28 15 ENE - 10 -
16.02.2019 10:00:00 12,6 -0,5 21 11 NE 1028,0 10 0,0
16.02.2019 09:00:00 11,0 -1,0 18 10 NE - 10 -
16.02.2019 08:00:00 10,0 0,0 16 9 NE - 10 -
16.02.2019 07:00:00 9,6 -0,9 13 7 NE 1026,0 10 -
16.02.2019 06:00:00 6,0 1,0 5 3 - - 10 -
16.02.2019 05:00:00 9,0 0,0 9 5 NNE - 10 -
16.02.2019 04:00:00 8,9 4,6 16 9 NE 1024,6 10 0,0
16.02.2019 03:00:00 10,0 5,0 26 14 ENE - 10 -
16.02.2019 02:00:00 10,0 0,0 15 8 NNE - 10 -
16.02.2019 01:00:00 8,7 0,8 15 8 NE 1024,5 10 -
16.02.2019 00:00:00 10,0 2,0 22 12 NE - 10 -
15.02.2019 23:00:00 10,0 4,0 13 7 NE - 10 -
15.02.2019 22:00:00 9,3 5,8 13 7 ENE 1024,2 10 0,0
15.02.2019 21:00:00 9,0 8,0 34 18 ENE - 7 -
15.02.2019 20:00:00 9,0 8,0 29 16 ENE - 8 -
15.02.2019 19:00:00 11,2 8,1 21 11 ESE 1023,4 10 -
15.02.2019 18:00:00 12,0 8,0 24 13 E - 10 -
15.02.2019 17:00:00 14,0 8,0 24 13 E - 10 -
15.02.2019 16:00:00 14,0 6,1 24 13 E 1022,5 10 0,0
15.02.2019 15:00:00 15,0 4,0 18 10 E - 10 -
15.02.2019 14:00:00 16,0 3,0 16 9 ESE - 10 -
15.02.2019 13:00:00 16,5 1,7 8 4 SSO 1023,9 10 -
15.02.2019 12:00:00 16,0 2,0 11 6 OSO - 10 -
15.02.2019 11:00:00 13,0 6,0 11 6 SSO - 10 -
15.02.2019 10:00:00 10,2 6,9 5 3 O 1026,0 10 0,0
15.02.2019 09:00:00 9,0 5,0 4 2 - - 10 -
15.02.2019 08:00:00 6,0 4,0 9 5 ONO - 10 -
15.02.2019 07:00:00 2,3 1,0 8 4 SO 1025,9 10 -
15.02.2019 06:00:00 2,0 1,0 5 3 SO - 10 -
15.02.2019 05:00:00 2,0 1,0 4 2 O - 10 -
15.02.2019 04:00:00 3,1 1,1 8 4 OSO 1025,8 10 0,0
15.02.2019 03:00:00 3,0 1,0 4 2 - - 10 -
15.02.2019 02:00:00 2,0 1,0 5 3 O - 10 -
15.02.2019 01:00:00 2,6 1,1 13 7 OSO 1026,9 10 -
15.02.2019 00:00:00 3,0 1,0 13 7 OSO - 10 -
14.02.2019 23:00:00 4,0 2,0 9 5 O - 10 -
14.02.2019 22:00:00 3,3 1,8 8 4 OSO 1027,5 10 0,0
14.02.2019 21:00:00 5,0 2,0 5 3 SSO - 10 -
14.02.2019 20:00:00 6,0 2,0 5 3 ONO - 10 -
14.02.2019 19:00:00 10,0 3,0 5 3 NO 1027,9 10 -
14.02.2019 18:00:00 12,0 4,0 5 3 O - 10 -
14.02.2019 17:00:00 14,0 4,0 9 5 SSE - 10 -
14.02.2019 16:00:00 14,0 3,4 13 7 ESE 1027,7 10 0,0
14.02.2019 15:00:00 15,0 3,0 16 9 ESE - 10 -
14.02.2019 14:00:00 16,0 1,0 11 6 SE - 10 -
14.02.2019 13:00:00 15,5 -2,2 9 5 SSO 1028,7 10 -
14.02.2019 12:00:00 14,0 -1,0 13 7 SO - 10 -
14.02.2019 11:00:00 13,0 -2,0 11 6 SO - 10 -
14.02.2019 10:00:00 10,5 0,3 16 9 OSO 1028,9 10 0,0
14.02.2019 09:00:00 6,0 1,0 9 5 SO - 10 -
14.02.2019 08:00:00 3,0 0,0 13 7 SO - 10 -
14.02.2019 07:00:00 2,3 -1,8 13 7 O 1028,7 10 -
14.02.2019 06:00:00 3,0 -3,0 8 4 O - 10 -
14.02.2019 05:00:00 4,0 -2,0 5 3 NNO - 10 -
14.02.2019 04:00:00 5,6 -1,0 9 5 N 1027,0 10 0,0
14.02.2019 03:00:00 9,0 -5,0 24 13 NE - 10 -
14.02.2019 02:00:00 9,0 -5,0 28 15 NE - 10 -
14.02.2019 01:00:00 9,1 -4,0 34 18 NE 1027,3 10 -
14.02.2019 00:00:00 9,0 -2,0 29 16 ENE - 10 -
13.02.2019 23:00:00 10,0 -4,0 21 11 NE - 10 -
13.02.2019 22:00:00 10,3 -5,4 41 22 NE 1026,3 10 0,0
13.02.2019 21:00:00 11,0 -5,0 29 16 N - 10 -
13.02.2019 20:00:00 11,0 -5,0 24 13 E - 10 -
13.02.2019 19:00:00 9,9 -6,3 24 13 NNO 1025,1 10 -
13.02.2019 18:00:00 10,0 -6,0 26 14 OSO - 10 -
13.02.2019 17:00:00 12,0 -7,0 22 12 NNE - 10 -
13.02.2019 16:00:00 11,0 -4,2 21 11 ESE 1023,5 10 0,0
13.02.2019 15:00:00 13,0 -5,0 41 22 O - 10 -
13.02.2019 14:00:00 13,0 0,0 39 21 ENE - 10 -
13.02.2019 13:00:00 13,0 -1,7 29 16 SO 1023,4 10 -
13.02.2019 12:00:00 13,0 -2,0 39 21 E - 10 -
13.02.2019 11:00:00 12,0 -4,0 26 14 SO - 10 -
13.02.2019 10:00:00 11,7 -2,0 31 17 E 1024,6 10 0,0
13.02.2019 09:00:00 11,0 -5,0 24 13 NNE - 10 -
13.02.2019 08:00:00 10,0 -6,0 11 6 - - 10 -
13.02.2019 07:00:00 9,4 -5,0 11 6 ENE 1024,2 10 -
13.02.2019 06:00:00 9,0 -6,0 16 9 - - 10 -
13.02.2019 05:00:00 10,0 -4,0 41 22 E - 10 -
13.02.2019 04:00:00 7,5 -2,4 11 6 ONO 1022,8 10 0,0
13.02.2019 03:00:00 8,0 -4,0 9 5 S - 10 -
13.02.2019 02:00:00 8,0 -2,0 11 6 - - 10 -
13.02.2019 01:00:00 9,8 -2,8 4 2 - 1022,7 10 -
13.02.2019 00:00:00 9,0 0,0 15 8 NNO - 10 -
12.02.2019 23:00:00 8,0 0,0 5 3 NE - 10 -
12.02.2019 22:00:00 8,1 -0,8 9 5 S 1022,4 10 0,0
12.02.2019 21:00:00 11,0 -1,0 21 11 SSO - 10 -
12.02.2019 20:00:00 - - - - - - - -
12.02.2019 19:00:00 9,8 -0,1 21 11 O 1020,7 10 -
12.02.2019 18:00:00 11,0 -1,0 21 11 ENE - 10 -
12.02.2019 17:00:00 12,0 -2,0 11 6 N - 10 -
12.02.2019 16:00:00 11,7 0,3 29 16 NE 1019,3 10 0,0
12.02.2019 15:00:00 11,0 3,0 24 13 ENE - 10 -
12.02.2019 14:00:00 13,0 2,0 18 10 NNE - 10 -
12.02.2019 13:00:00 13,7 2,2 8 4 - 1018,5 10 -
12.02.2019 12:00:00 13,0 4,0 9 5 SSE - 10 -
12.02.2019 11:00:00 11,0 4,0 8 4 SO - 10 -
12.02.2019 10:00:00 10,6 3,5 8 4 SO 1017,9 10 0,0
12.02.2019 09:00:00 9,0 4,0 11 6 SO - 10 -
12.02.2019 08:00:00 8,0 4,0 11 6 SSO - 10 -
12.02.2019 07:00:00 6,8 2,5 16 9 O 1015,9 10 -
12.02.2019 06:00:00 6,0 3,0 22 12 O - 10 -
12.02.2019 05:00:00 7,0 4,0 24 13 O - 10 -
12.02.2019 04:00:00 6,3 3,4 16 9 O 1015,9 10 0,0
12.02.2019 03:00:00 6,0 4,0 15 8 OSO - 10 -
12.02.2019 02:00:00 7,0 4,0 16 9 OSO - 10 -
12.02.2019 01:00:00 7,0 3,8 11 6 O 1016,5 10 -
12.02.2019 00:00:00 8,0 4,0 13 7 O - 10 -
11.02.2019 23:00:00 7,0 3,0 13 7 O - 10 -
11.02.2019 22:00:00 8,2 3,4 11 6 O 1016,2 10 0,0
11.02.2019 21:00:00 11,0 4,0 15 8 O - 10 -
11.02.2019 20:00:00 13,0 3,0 16 9 O - 10 -
11.02.2019 19:00:00 14,2 3,0 18 10 ONO 1014,6 10 -
11.02.2019 18:00:00 16,0 2,0 26 14 O - 10 -
11.02.2019 17:00:00 18,0 4,0 29 16 O - 10 -
11.02.2019 16:00:00 18,7 4,2 35 19 O 1012,7 10 0,0
11.02.2019 15:00:00 19,0 5,0 42 23 O - 10 -
11.02.2019 14:00:00 20,0 8,0 35 19 O - 10 -
11.02.2019 13:00:00 19,2 7,9 31 17 O 1014,0 10 -

tt = Temperatura
td = dewpoint
ff = velocità del vento
dd = direzione del vento
ppp = reduced air pressure
vv = visibility
rr = precipitazioni

Stazioni seguenti

WeatherPro
AMSI
MeteoEarth